Погода в Самарканде

Погода в Самарканде : погода сейчас, прогноз погоды и архив. Всё, что Вы хотите узнать о погоде в Самарканде!

Поиск расширенной информации на нашем сайте:

Другие новости

Новости СМИ2

Главная страница сайта

Новости сайта

02.10.2013

Напоминаем, что на нашем новом сайте вы можете получить высокодетализированные прогнозы погоды по пунктам России, СНГ и мира (включающие важные для авиации метеовеличины, такие как направление и скорость ветра, видимость, явления погоды, количество и форма облачности, нижняя и верхняя граница облачности), а также ознакомиться с разнообразными материалами по авиационной метеорологии и подборкой полезных ссылок на эту тему.

Сайт Метеоцентр.Азия посвящён разработке технологий оптимизации авиаметеорологического обслуживания, включая проектирование и перспективное создание нескольких автоматизированных авиаметеорологических систем:
- система выпуска высокодетальных прогностических карт явлений погоды для нижнего воздушного пространства по России и ближнему зарубежью;
- система верификации прогнозов TAF (выпускаемых синоптиками официальных АМСГ РФ и ближнего зарубежья) и AUTOTAF (выпускаемых сайтом Метеоцентр.Азия) - выявление ошибок, онлайн-сопоставление с фактической погодой METAR, автоматическое внесение коррективов в прогнозы при резком отклонении фактической погоды от прогноза, подсчёт оправдываемости прогнозов по элементам и в целом;
- система обработки, анализа и отображения авиаметеорологической информации для применения провайдерами метеорологической информации.


Погода в Самарканде - сегодня

Время (UTC), дата Ветер
(°,м/с) 
Видим.   Явления Облачность Т
(°С)
Тd
(°С)
f(%) Тe
(°С)
Pmin
(гПа)
dP
(гПа)
Po
(мм)
O2
(г/м3)
Тmin Tmax R s Состояние
почвы
12 22.04.17 290 (З) 20000 м    8/8 600 м кучево-дожд. 
[Cb calv]
+20.3 +4.1 34 +20  1017.7  -0.6  702  263           
15 22.04.17 250 (З) н/о    ясно 
+16.7 +6.8 52 +18  1020.1  1.3  703  266    +20.7       
18 22.04.17 090 (В) н/о    ясно 
+14.1 +8.5 69 +15  1021.1  0.2  703  268    +20.7       
21 22.04.17 050 (СВ) н/о    ясно 
+12.3 +9.2 81 +15  1024.6  -0.5  703  269           
00 23.04.17 090 (В) н/о    ясно 
+9.9 +7.8 87 +11  1021.8  703  272           
03 23.04.17 050 (СВ) 20000 м    4/0 верхняя 
[Ci fib]
+14.3 +7 61 +16  1022.1  1.5  704  268           
06 23.04.17 тихо ()   20000 м    ясно 
+20.5 +5.3 37 +21  1021.7  1.2  705  263  +9.5         
09 23.04.17 250 (З) 20000 м    ясно 
+23.3 +3 26 +23  1020  -0.8  704  261           
12 23.04.17 290 (З) 20000 м    ясно 
+23.1 +5.8 33 +23  1018.7  -1.3  703  260           
15 23.04.17 110 (В) 20000 м    ясно 
+19.4 +6.7 44 +21  1019.9  0.2  704  264    +23.6       
18 23.04.17 тихо ()   н/о    ясно 
+14.6 +9.8 73 +17  1020.7  -0.5  703  267    +23.6       
21 23.04.17 050 (СВ) н/о    ясно 
+14.2 +9.5 73 +17  1018.7  -2  702  267           
00 24.04.17 тихо ()   н/о    ясно 
+11.4 +8.4 82 +12  1017.7  -1.6  701  269           
03 24.04.17 050 (СВ) 20000 м    3/0 верхняя 
[Ci fib]
+15.3 +6.5 56 +16  1016.5  -0.1  700  266           
06 24.04.17 090 (В) 20000 м    ясно 
+21.2 +6.1 37 +21  1014  -0.7  700  261  +10.3         
09 24.04.17 070 (В) 20000 м    ясно 
+24.7 +7.3 33 +25  1011.7  -1.2  699  257           
12 24.04.17 070 (В) 20000 м    ясно 
+25 +2.9 24 +25  1009.8  -1.8  698  257           
15 24.04.17 070 (В) н/о    ясно 
+21.6 +5.3 35 +22  1010.3  -0.4  697  259    +26.2       
18 24.04.17 070 (В) н/о    ясно 
+17.9 +8.6 54 +20  1012.9  1.6  699  263    +26.2       
21 24.04.17 050 (СВ) н/о    ясно 
+13.6 +8.9 73 +16  1013  -1.1  698  266           
00 25.04.17 тихо ()   н/о    ясно 
+12.9 +9.2 78 +14  1013.7  0.4  698  267           
03 25.04.17 тихо ()   20000 м    ясно 
+18.1 +9.4 57 +20  1013.1  0.9  699  262           
06 25.04.17 200 (Ю) 20000 м    ясно 
+25.1 +7 31 +25  1011.4  0.2  699  257  +12         
09 25.04.17 320 (СЗ) 20000 м    ясно 
+27.3 +10.3 35 +30  1010  -0.7  698  254           
12 25.04.17 320 (СЗ) 20000 м    1/0 средняя 
[Ac lent]
+27.5 +11 36 +32  1009.8  -0.1  698  254           
Время (UTC), дата Ветер
(°,м/с) 
Видим.   Явления Облачность Т
(°С)
Тd
(°С)
f(%) Тe
(°С)
Pmin
(гПа)
dP
(гПа)
Po
(мм)
O2
(г/м3)
Тmin Tmax R s Состояние
почвы

Для получения пояснительной информации подведите курсор к названию столбца.

ПОГОДА в Самарканде - архив

Всё, что Вы хотите узнать о погоде в Самарканде - удобно и подробно!

Выберите нужную дату (начиная с 1 января 2015* года) и нажмите кнопку "Найти".
Будут отображены архивные сводки погоды по пункту Самарканд, начиная с указанной даты.


Отображать данные в формате CSV (для использования в таблицах Excel)


Внимание! Наш архив погоды предназначен исключительно для личного некоммерческого использования в познавательных целях. Если Вам необходимы официальные справки о состоянии погоды (для производственных, юридических, коммерческих и т.п. целей), обращайтесь в органы Росгидромета.

*Примечание: данная дата относится к архиву по метеостанциям СССР (Россия, СНГ, Балтия).
Архив по метеостанциям Зарубежной Европы и Азии (кроме Китая) хранится 10 дней, по другим регионам земного шара (Китай, Африка, Америка, Австралия, Океания) - 1 день.

Самарканд - район местоположения метеостанции


Название, широта, долгота, высота метеостанции:
Самарканд (город) 39.6°ш. 66.9°д. 724 м над ур. моря [Узбекистан]

Дополнительная информация

В oтличие oт бoльшинства пoгoдных сайтoв мы публикуем пoдрoбную метеoинфoрмацию в детальнoм прoфессиoнальнoм фoрмате.

Характеристики температуры и влажнoсти вoздуха измеряются на высoте 2 м в тени вдали oт зданий и деревьев.
Скoрoсть ветра измеряется на высoте 10 м (на урoвне рoста челoвека скoрoсть ветра ниже в 1.5-2 раза). Если метеoстанция нахoдится в гoрoде или в лесу, тo скoрoсть ветра занижена на 2-4 м/с пo сравнению с oткрытым местoм. Скoрoсть ветра над акватoриями крупных рек и oзёр, а также на вершинах хoлмoв на 2-5 м/с выше, чем в oбычных услoвиях.
Атмoсфернoе давление в разных тoчках местнoсти мoжет значительнo oтличаться oт давления на метеoстанции, в зависимoсти oт услoвий рельефа (при пoдъёме на 10 м давление пoнижается примернo на 1 мм рт.ст.).